Regional Weather Roundup
Issued by NWS

Home | Current Version | Previous Version | Graphics & Text | Print | Product List | Glossary On
Versions: 1 2 3 4 5 6 7 8 9 10 11 12 13 14 15 16 17 18 19 20 21 22 23 24 25 26 27 28 29 30 31 32 33 34 35 36 37 38 39 40 41 42 43 44 45 46 47 48 49 50
000
ASUS43 KMKX 170700
RWRWI

WISCONSIN REGIONAL WEATHER ROUNDUP
NATIONAL WEATHER SERVICE MILWAUKEE/SULLIVAN WI
200 AM CDT THU APR 17 2014

NOTE: "FAIR" INDICATES FEW OR NO CLOUDS BELOW 12,000 FEET WITH NO
SIGNIFICANT WEATHER AND/OR OBSTRUCTIONS TO VISIBILITY.

WIZ001-002-006>008-014>016-023>028-170800-
NORTHWEST WISCONSIN

CITY           SKY/WX    TMP DP  RH WIND       PRES   REMARKS
SUPERIOR ARPT  LGT SNOW  30  29  96 E18G28    30.14S WCI  18
ASHLAND        LGT SNOW  28  27  96 NE18      30.11F VSB 1   WCI  15
HAYWARD        LGT SNOW  29  27  92 NE9       30.03S VSB 1   WCI  20
SIREN          LGT SNOW  28  27  94 NE13G18   30.04R WCI  18
RICE LAKE      LGT SNOW  34  32  93 NE7       30.00R WCI  28
LADYSMITH      LGT SNOW  35  32  90 E10       30.02R WCI  27
EAU CLAIRE     LGT RAIN  38  35  89 E10       29.94S WCI  31
MENOMONIE      DRIZZLE   37  37  98 NE9       29.94S WCI  30
NEW RICHMOND   LGT RAIN  32  32 100 N12       29.97S WCI  23
OSCEOLA        LGT SNOW  30  30  99 N9        30.02S WCI  21
$$

WIZ003>005-009-010-017-018-170800-
NORTH CENTRAL WISCONSIN

CITY           SKY/WX    TMP DP  RH WIND       PRES   REMARKS
WOODRUFF       LGT SNOW  32  29  90 SE10G18   30.06F VSB 1   WCI  23
RHINELANDER    LGT SNOW  30  28  92 E13       30.07F FOG     WCI  20
EAGLE RIVER    LGT SNOW  30  29  96 SE13      30.09F WCI  20
LAND O LAKES   LGT SNOW  30  28  94 SE13      30.10F WCI  20
PHILLIPS       LGT SNOW  32  31  96 SE12      30.02S WCI  23
TOMAHAWK       LGT SNOW  31  30  94 E7        30.05F VSB 1   WCI  24
MEDFORD        LGT SNOW  32  32  97 E14       29.99F VSB 1   WCI  22
MERRILL        LGT SNOW  32  31  96 CALM      30.05F
$$

WIZ029-030-035-036-043>047-170800-
CENTRAL WISCONSIN

CITY           SKY/WX    TMP DP  RH WIND       PRES   REMARKS
WAUSAU         LGT SNOW  33  30  88 E16G23    30.03F FOG     WCI  23
MOSINEE        FLURRIES  34  32  93 E13G23    30.05F WCI  25
MARSHFIELD     CLOUDY    39  30  70 SE16G29   29.97F WCI  30
STEVENS POINT  CLOUDY    36  29  76 E13G18    30.04F WCI  27
WAUPACA        CLOUDY    43  28  56 SE12G23   30.09F
WAUTOMA        NOT AVBL
WISC RAPIDS    CLOUDY    41  28  60 SE12G20   30.00F
CAMP DOUGLAS   NOT AVBL
$$

WIZ011>013-019>022-031-037>040-048>050-170800-
NORTHEAST WISCONSIN

CITY           SKY/WX    TMP DP  RH WIND       PRES   REMARKS
ANTIGO         CLOUDY    32  28  84 SE26G32   30.08F HAZE    WCI  18
STURGEON BAY   CLOUDY    37  25  60 SE15      30.20F WCI  28
GREEN BAY      CLOUDY    39  28  64 SE20G26   30.15F WCI  29
MANITOWOC      NOT AVBL
APPLETON       CLOUDY    37  28  70 SE16      30.11F WCI  28
CLINTONVILLE   CLOUDY    37  28  70 SE8       30.12F WCI  31
OSHKOSH        CLOUDY    40  27  59 SE12G21   30.09F WCI  33
$$

WIZ032>034-041-042-053>061-170800-
SOUTHWEST WISCONSIN

CITY           SKY/WX    TMP DP  RH WIND       PRES   REMARKS
LA CROSSE      LGT RAIN  49  30  48 SE17G28   29.88F
SPARTA         CLOUDY    47  27  44 S20       29.93S
VIROQUA        CLOUDY    45  29  55 SE15G23   29.91S
BOSCOBEL       CLOUDY    49  28  44 S8G20     29.94F
PRAIRIE DU CHI CLOUDY    48  27  42 SE9G23    29.92R
PLATTEVILLE    CLOUDY    44  30  57 SE20G28   29.97F
$$

WIZ056-057-062-063-064-067-068-170800-
SOUTH CENTRAL WISCONSIN

CITY           SKY/WX    TMP DP  RH WIND       PRES   REMARKS
BARABOO/DELLS  CLOUDY    44  28  54 SE15      29.99F
LONE ROCK      NOT AVBL
WATERTOWN      CLOUDY    41  28  60 SE13      30.09S
MADISON        CLOUDY    44  28  53 SE20      30.03F
MIDDLETON      PTSUNNY   46  28  49 SE14G23   30.02F
MONROE         CLOUDY    43  29  58 SE16G23   30.02F
JANESVILLE     CLOUDY    43  27  52 SE14G24   30.06F
$$

WIZ051-052-058>065-066-070>072-170800-
SOUTHEAST WISCONSIN

CITY           SKY/WX    TMP DP  RH WIND       PRES   REMARKS
MILWAUKEE      MOCLDY    41  29  62 SE16G23   30.14F
WAUKESHA       PTCLDY    37  28  70 SE9       30.13S WCI  31
MILWAUKEE/TIMM MOCLDY    41  27  56 SE12      30.14S
RACINE         MOCLDY    40  29  64 SE17      30.16F WCI  31
BURLINGTON     MOCLDY    37  28  70 SW8       30.12F WCI  30
KENOSHA        MOCLDY    41  29  62 SE14      30.14F
FOND DU LAC    CLOUDY    40  28  62 SE15      30.09F WCI  32
SHEBOYGAN      CLOUDY    39  28  64 SE13G29   30.16F WCI  31
WEST BEND      MOCLDY    37  28  70 SE10G18   30.13F WCI  30
JUNEAU         CLOUDY    40  25  54 SE14      30.09F WCI  33
$$

LSZ147-162-170800-
LAKE SUPERIOR

STATION/POSITION TIME  TEMP    WIND        PRES    WAVE
                       AIR SEA DIR/SP/G            HT/PER
                 (UTC) (F)     (DEG/KT/KT) (MB)    (FT/S)
DEVILS ISLAND    0600   30      60/ 34/ 40 1022.5F
PORT WING        0609   29      50/ 25/ 25 1020.3F
SAXON HARBOR     0600           50/ 12/ 14 1019.6F
$$

LMZ867-665-643>646-170800-
LAKE MICHIGAN

STATION/POSITION TIME  TEMP    WIND        PRES    WAVE
                       AIR SEA DIR/SP/G            HT/PER
                 (UTC) (F)     (DEG/KT/KT) (MB)    (FT/S)
NORTHPORT PIER   0600   35     100/ 13/ 17 1024.0R
SISTER BAY       0623   36     120/  7/ 10   N/A
SHEBOYGAN LAKESH 0600   39     130/ 25/ 29 1021.9F
PORT WASHINGTON  0600   39     140/ 16/ 19 1021.7
MILWAUKEE LAKESH 0600   39     150/ 15/ 19   N/A
KENOSHA   LAKESH 0600   40     150/ 21/ 24   N/A
$$

TC  - TEMPERATURE IN CELSIUS
VSB - VISIBILITY IN STATUTE MILES
WCI - WIND CHILL INDEX
HX  - HEAT INDEX




USA.gov is the U.S. government's official web portal to all federal, state and local government web resources and services.